Location: *
(53.9002°N, 27.5624°E)
Time: 12:38:23
(UTC+00:00)

Cosmos 2227 Rocket - Pass Details

Date: 12 November 2019
Orbit: 838 x 846 km, 71.0° (Epoch: 14 December)

Event Time Altitude Azimuth Distance (km) Brightness Sun altitude
Rises 17:38:56 0° 321° (NW) 3,418 6.0 -29.6°
Reaches altitude 10° 17:41:53 10° 307° (NW) 2,477 5.4 -30.1°
Maximum altitude 17:46:06 22° 258° (WSW) 1,773 4.4 -30.7°
Drops below altitude 10° 17:50:19 10° 210° (SSW) 2,461 4.8 -31.3°
Sets 17:53:15 0° 196° (SSW) 3,389 5.4 -31.7°
